Location: Gloden
(48.4833°N, 15.3167°E)
Time: 22:32:22
(UTC+00:00)

Cosmos 405 - Pass Details

Date: 15 December 2019
Orbit: 451 x 467 km, 81.3° (Epoch: 24 January)

Event Time Altitude Azimuth Distance (km) Brightness Sun altitude
Exits shadow 04:13:42 32° 34° (NNE) 823 4.4 -23.6°
Maximum altitude 04:14:41 40° 74° (ENE) 698 4.2 -23.5°
Drops below altitude 10° 04:18:01 10° 145° (SE) 1,606 6.3 -22.9°
Sets 04:20:10 0° 153° (SSE) 2,472 7.2 -22.6°
